EW5195 Weather Reports


Display with metric or nautical units.
time (UTC)temp
F
wind
direction
speed
MPH
gust
MPH
rain 1hr
in
rain 24hr
in
rain mn
in
humidity
%
barometer
mb
20260905230551 75 0 0.0 0.0 0.00 0.80 0.79 92 1011.7
20260905230129 75 0 0.0 0.0 0.00 0.80 0.79 92 1011.8
20260905225555 75 0 0.0 0.0 0.00 1.10 0.79 92 1012.0
20260905225051 75 0 0.0 0.0 0.00 1.10 0.79 92 1011.7
20260905224559 75 0 0.0 0.0 0.00 1.10 0.79 92 1011.8
20260905224049 75 0 0.0 0.0 0.00 1.10 0.79 91 1012.0
20260905223548 75 0 0.0 0.0 0.00 1.10 0.79 91 1011.6
20260905223109 75 0 0.0 0.0 0.00 1.10 0.79 91 1011.6
20260905222551 75 0 0.0 0.0 0.00 1.10 0.79 91 1011.7
20260905222051 75 0 0.0 0.0 0.00 1.10 0.79 90 1011.7
20260905221606 75 0 0.0 0.0 0.00 1.10 0.79 91 1011.6
20260905221054 75 0 0.0 0.0 0.00 1.10 0.79 90 1011.6
20260905220551 76 0 0.0 2.0 0.00 1.10 0.79 90 1011.7
20260905220111 76 0 0.0 2.0 0.00 1.10 0.79 90 1011.7
20260905215551 76 80 0.0 1.0 0.00 1.10 0.79 89 1011.9
20260905215052 76 0 0.0 0.0 0.00 1.10 0.79 90 1011.7
20260905214606 76 0 0.0 0.0 0.00 1.10 0.79 90 1011.9
20260905214048 76 0 0.0 0.0 0.00 1.10 0.79 90 1011.8
20260905213552 76 0 0.0 0.0 0.00 1.10 0.79 90 1011.6
20260905213110 76 0 0.0 0.0 0.00 1.10 0.79 90 1011.5
20260905212549 76 0 0.0 1.0 0.00 1.10 0.79 89 1011.6
20260905212049 76 0 0.0 1.0 0.00 1.10 0.79 89 1011.7
20260905211606 76 0 0.0 1.0 0.00 1.10 0.79 89 1011.8
20260905211050 76 0 0.0 0.0 0.00 1.10 0.79 91 1011.9
20260905210550 76 0 0.0 1.0 0.00 1.10 0.79 91 1012.1
20260905210105 76 0 0.0 1.0 0.00 1.10 0.79 92 1011.9
20260905205550 75 0 0.0 1.0 0.00 1.10 0.79 92 1012.0
20260905205049 75 0 0.0 1.0 0.00 1.10 0.79 92 1012.0
20260905204602 75 0 0.0 1.0 0.00 1.10 0.79 92 1011.6
20260905204049 75 0 0.0 0.0 0.00 1.10 0.79 92 1011.7
20260905203549 75 0 0.0 1.0 0.00 1.10 0.79 92 1011.8
20260905203105 75 0 0.0 1.0 0.01 1.10 0.79 92 1011.9
20260905202549 75 0 0.0 0.0 0.02 1.10 0.79 92 1011.8
20260905202051 75 0 0.0 0.0 0.02 1.10 0.79 92 1011.9
20260905201609 75 0 0.0 0.0 0.02 1.10 0.79 92 1012.1
20260905201050 75 0 0.0 0.0 0.03 1.10 0.79 93 1011.9
20260905200549 75 0 0.0 0.0 0.03 1.10 0.79 93 1011.9
20260905200109 75 0 0.0 0.0 0.03 1.10 0.79 93 1012.0
20260905195550 74 0 0.0 0.0 0.03 1.10 0.79 93 1012.1
20260905195050 74 0 0.0 0.0 0.04 1.10 0.79 93 1012.2
20260905194600 74 0 0.0 2.0 0.04 1.10 0.79 92 1012.0
20260905194050 74 0 0.0 2.0 0.04 1.10 0.79 92 1011.9
20260905193550 74 0 0.0 2.0 0.03 1.09 0.78 92 1011.9
20260905193113 74 0 0.0 1.0 0.03 1.09 0.78 92 1012.2
20260905192550 75 0 0.0 1.0 0.03 1.08 0.77 93 1012.4
20260905192051 75 0 0.0 3.0 0.04 1.08 0.77 93 1012.4
20260905191602 75 0 0.0 3.0 0.03 1.07 0.76 92 1012.5
20260905191049 75 0 1.0 3.0 0.03 1.07 0.76 92 1012.4
20260905190549 75 0 0.0 4.0 0.03 1.07 0.76 92 1013.1
20260905185549 75 90 0.0 2.0 0.03 1.07 0.76 92 1012.5
20260905185049 75 0 0.0 1.0 0.02 1.05 0.75 92 1012.2
20260905184606 75 0 0.0 0.0 0.02 1.05 0.75 91 1012.4
20260905184051 75 0 0.0 1.0 0.02 1.05 0.75 91 1012.3
20260905183551 75 0 0.0 2.0 0.02 1.05 0.75 91 1012.2
20260905183103 75 0 0.0 2.0 0.02 1.05 0.75 91 1012.3
20260905182548 75 0 0.0 0.0 0.01 1.04 0.74 90 1012.2
20260905182052 76 0 0.0 0.0 0.02 1.04 0.73 90 1012.3
20260905181609 76 0 0.0 3.0 0.03 1.04 0.73 90 1012.4
20260905181055 76 0 0.0 3.0 0.06 1.04 0.73 92 1012.8
20260905180552 75 304 0.0 3.0 0.16 1.04 0.73 93 1012.9
20260905180105 74 0 1.0 3.0 0.16 1.04 0.73 93 1013.0
20260905175552 75 0 0.0 3.0 0.18 1.04 0.73 94 1013.1
20260905175051 73 304 0.0 0.0 0.19 1.04 0.73 93 1013.1
20260905174614 73 0 0.0 0.0 0.23 1.04 0.73 93 1013.2
20260905174051 73 0 0.0 0.0 0.27 1.04 0.73 93 1012.9
20260905173549 73 0 0.0 1.0 0.33 1.04 0.73 93 1013.3
20260905173107 72 0 0.0 6.0 0.47 1.04 0.73 92 1013.2
20260905172549 72 0 1.0 7.0 0.61 1.04 0.73 92 1013.5
20260905172053 72 338 3.0 9.0 0.71 1.02 0.71 92 1013.8
20260905171608 72 360 3.0 9.0 0.70 1.01 0.70 92 1013.7
20260905171050 73 345 6.0 9.0 0.66 0.97 0.66 92 1014.1
20260905170551 74 323 2.0 4.0 0.57 0.88 0.57 92 1014.3
20260905165552 74 0 0.0 2.0 0.55 0.86 0.55 91 1014.1
20260905165050 74 0 0.0 2.0 0.52 0.84 0.52 91 1014.0
20260905164605 75 0 0.0 3.0 0.50 0.81 0.50 90 1013.9
20260905164051 75 0 1.0 3.0 0.46 0.77 0.46 89 1014.1
20260905163551 76 0 0.0 3.0 0.40 0.71 0.40 88 1014.1
20260905163105 78 0 0.0 0.0 0.25 0.56 0.25 85 1014.3
20260905162552 81 0 0.0 0.0 0.12 0.43 0.12 80 1014.0
20260905162050 82 0 0.0 0.0 0.00 0.31 0.00 76 1013.5
20260905161624 82 0 0.0 0.0 0.00 0.31 0.00 75 1013.3
20260905161051 83 0 0.0 0.0 0.00 0.31 0.00 75 1013.1
20260905160550 83 0 0.0 0.0 0.00 0.31 0.00 76 1013.0
20260905160104 83 0 0.0 0.0 0.00 0.31 0.00 77 1012.9
20260905155550 83 0 0.0 0.0 0.00 0.31 0.00 76 1012.9
20260905155050 83 0 0.0 0.0 0.00 0.31 0.00 75 1012.9
20260905154610 83 0 0.0 0.0 0.00 0.31 0.00 75 1013.0
20260905154051 83 0 0.0 0.0 0.00 0.31 0.00 75 1013.1
20260905153550 83 0 0.0 0.0 0.00 0.31 0.00 76 1013.2
20260905153102 84 0 0.0 0.0 0.00 0.31 0.00 75 1013.1
20260905152552 83 0 0.0 0.0 0.00 0.31 0.00 76 1013.1
20260905152050 83 0 0.0 0.0 0.00 0.31 0.00 78 1013.2
20260905151604 83 0 0.0 0.0 0.00 0.31 0.00 78 1013.2
20260905151050 83 0 0.0 0.0 0.00 0.31 0.00 79 1013.3
20260905150554 82 0 0.0 0.0 0.00 0.31 0.00 78 1013.2
20260905150115 82 0 0.0 0.0 0.00 0.31 0.00 79 1013.2
20260905145551 82 0 0.0 0.0 0.00 0.31 0.00 79 1013.2
20260905145051 82 0 0.0 0.0 0.00 0.31 0.00 81 1013.3
20260905144605 82 0 0.0 0.0 0.00 0.31 0.00 81 1013.3
20260905144050 81 0 0.0 0.0 0.00 0.31 0.00 79 1013.4
20260905143549 81 0 0.0 0.0 0.00 0.31 0.00 80 1013.2
20260905143104 81 0 0.0 0.0 0.00 0.31 0.00 80 1013.4
20260905142550 81 0 0.0 0.0 0.00 0.31 0.00 81 1013.1
20260905142050 81 0 0.0 0.0 0.00 0.31 0.00 82 1013.0
20260905141607 81 0 0.0 0.0 0.00 0.31 0.00 82 1012.9
20260905141052 80 0 0.0 0.0 0.00 0.31 0.00 82 1013.0
20260905140552 80 0 0.0 0.0 0.00 0.31 0.00 83 1012.9
20260905140109 80 0 0.0 0.0 0.00 0.31 0.00 83 1013.0
20260905135554 80 0 0.0 0.0 0.00 0.31 0.00 84 1013.0
20260905135049 79 0 0.0 0.0 0.00 0.31 0.00 84 1012.9
20260905134605 79 0 0.0 0.0 0.00 0.31 0.00 88 1012.9
20260905134049 78 0 0.0 0.0 0.00 0.31 0.00 88 1012.5
20260905133551 78 0 0.0 0.0 0.00 0.31 0.00 89 1012.7
20260905133102 77 0 0.0 0.0 0.00 0.31 0.00 89 1012.8
20260905132548 76 0 0.0 0.0 0.00 0.31 0.00 90 1012.9
20260905132050 75 0 0.0 0.0 0.00 0.31 0.00 93 1012.8
20260905131602 75 0 0.0 0.0 0.00 0.31 0.00 93 1012.8
20260905131051 74 0 0.0 0.0 0.00 0.31 0.00 93 1012.6
20260905130551 74 0 0.0 0.0 0.00 0.31 0.00 94 1012.7
20260905130108 74 0 0.0 0.0 0.00 0.31 0.00 94 1012.7
20260905125549 73 0 0.0 0.0 0.00 0.31 0.00 94 1012.7
20260905125049 73 0 0.0 0.0 0.00 0.31 0.00 94 1012.8
20260905124604 73 0 0.0 0.0 0.00 0.31 0.00 95 1012.8
20260905124049 73 0 0.0 0.0 0.00 0.31 0.00 95 1013.0
20260905123548 72 0 0.0 0.0 0.00 0.31 0.00 95 1012.9
20260905123105 72 0 0.0 0.0 0.00 0.31 0.00 95 1012.9
20260905122550 72 0 0.0 0.0 0.00 0.31 0.00 95 1012.8
20260905122051 72 0 0.0 0.0 0.00 0.31 0.00 95 1012.9
20260905121605 72 0 0.0 0.0 0.00 0.31 0.00 95 1013.0
20260905121051 71 0 0.0 0.0 0.00 0.31 0.00 95 1012.8
20260905120551 71 0 0.0 0.0 0.00 0.31 0.00 95 1012.8
20260905120106 71 0 0.0 0.0 0.00 0.31 0.00 95 1012.9
20260905115553 70 0 0.0 0.0 0.00 0.31 0.00 95 1012.7
20260905115053 70 0 0.0 0.0 0.00 0.31 0.00 95 1012.7
20260905114601 70 0 0.0 0.0 0.00 0.31 0.00 95 1012.7
20260905114050 70 0 0.0 0.0 0.00 0.31 0.00 95 1012.7
20260905113551 70 0 0.0 0.0 0.00 0.31 0.00 95 1012.7
20260905113127 70 0 0.0 0.0 0.00 0.31 0.00 95 1012.8
20260905112551 69 0 0.0 0.0 0.00 0.31 0.00 95 1012.7
20260905112050 69 0 0.0 0.0 0.00 0.31 0.00 95 1012.8
20260905111604 69 0 0.0 0.0 0.00 0.31 0.00 95 1012.7
20260905111051 69 0 0.0 0.0 0.00 0.31 0.00 95 1012.6
20260905110551 69 0 0.0 0.0 0.00 0.31 0.00 95 1012.6
20260905110109 69 0 0.0 0.0 0.00 0.31 0.00 95 1012.7
20260905105551 69 0 0.0 0.0 0.00 0.31 0.00 94 1012.5
20260905105054 69 0 0.0 0.0 0.00 0.31 0.00 95 1012.5
20260905104610 69 0 0.0 0.0 0.00 0.31 0.00 94 1012.5
20260905104050 69 0 0.0 0.0 0.00 0.31 0.00 94 1012.4
20260905103551 69 0 0.0 0.0 0.00 0.31 0.00 94 1012.2
20260905103104 69 0 0.0 0.0 0.00 0.31 0.00 94 1012.2
20260905102550 69 0 0.0 0.0 0.00 0.31 0.00 94 1012.2
20260905102050 69 0 0.0 0.0 0.00 0.31 0.00 95 1012.2
20260905101607 69 0 0.0 0.0 0.00 0.31 0.00 95 1012.1
20260905101051 69 0 0.0 0.0 0.00 0.31 0.00 95 1012.3
20260905100550 69 0 0.0 0.0 0.00 0.31 0.00 95 1012.1
20260905100109 69 0 0.0 0.0 0.00 0.31 0.00 95 1012.1
20260905095551 69 0 0.0 0.0 0.00 0.31 0.00 95 1012.1
20260905095051 69 0 0.0 0.0 0.00 0.31 0.00 94 1012.0
20260905094602 69 0 0.0 0.0 0.00 0.31 0.00 94 1012.1
20260905094051 69 0 0.0 0.0 0.00 0.31 0.00 94 1012.0
20260905093551 69 0 0.0 0.0 0.00 0.31 0.00 94 1011.9
20260905093109 70 0 0.0 0.0 0.00 0.31 0.00 94 1011.9
20260905092551 70 0 0.0 0.0 0.00 0.31 0.00 94 1011.9
20260905092050 70 0 0.0 0.0 0.00 0.31 0.00 94 1012.0
20260905091605 70 0 0.0 0.0 0.00 0.31 0.00 94 1012.0
20260905091051 70 0 0.0 0.0 0.00 0.31 0.00 94 1012.0
20260905090551 70 0 0.0 0.0 0.00 0.31 0.00 95 1012.0
20260905090103 70 0 0.0 0.0 0.00 0.31 0.00 94 1012.0
20260905085551 70 0 0.0 0.0 0.00 0.31 0.00 95 1012.0
20260905085050 70 0 0.0 0.0 0.00 0.31 0.00 95 1012.1
20260905084606 70 0 0.0 0.0 0.00 0.31 0.00 94 1012.1
20260905084054 70 0 0.0 0.0 0.00 0.31 0.00 94 1012.1
20260905083551 70 0 0.0 0.0 0.00 0.31 0.00 94 1012.1
20260905083104 70 0 0.0 0.0 0.00 0.31 0.00 94 1012.2
20260905082551 70 0 0.0 0.0 0.00 0.31 0.00 94 1012.2
20260905082050 70 0 0.0 0.0 0.00 0.31 0.00 94 1012.2
20260905081605 70 0 0.0 0.0 0.00 0.31 0.00 94 1012.3
20260905081051 70 0 0.0 0.0 0.00 0.31 0.00 94 1012.2
20260905080551 70 0 0.0 0.0 0.00 0.31 0.00 94 1012.3
20260905080124 70 0 0.0 0.0 0.00 0.31 0.00 94 1012.4
20260905075550 70 0 0.0 0.0 0.00 0.31 0.00 94 1012.3
20260905075053 70 0 0.0 0.0 0.00 0.31 0.00 94 1012.2
20260905074611 70 0 0.0 0.0 0.00 0.31 0.00 94 1012.3
20260905074050 70 0 0.0 0.0 0.00 0.31 0.00 94 1012.3
20260905073550 70 0 0.0 0.0 0.00 0.31 0.00 94 1012.3
20260905073118 70 0 0.0 0.0 0.00 0.31 0.00 94 1012.4
20260905072549 70 0 0.0 0.0 0.00 0.31 0.00 94 1012.4
20260905072050 70 0 0.0 0.0 0.00 0.31 0.00 94 1012.4
20260905071623 70 0 0.0 0.0 0.00 0.31 0.00 94 1012.4
20260905071054 70 0 0.0 0.0 0.00 0.31 0.00 94 1012.4
20260905070550 70 0 0.0 0.0 0.00 0.31 0.00 94 1012.5
20260905070123 70 0 0.0 0.0 0.00 0.31 0.00 94 1012.5
20260905065550 70 0 0.0 0.0 0.00 0.31 0.00 94 1012.4
20260905065050 70 0 0.0 0.0 0.00 0.31 0.00 94 1012.5
20260905064605 70 0 0.0 0.0 0.00 0.31 0.00 94 1012.7
20260905064049 70 0 0.0 0.0 0.00 0.31 0.00 94 1012.7
20260905063551 70 0 0.0 0.0 0.00 0.31 0.00 94 1012.7
20260905063112 70 0 0.0 0.0 0.00 0.31 0.00 94 1012.8
20260905062549 70 0 0.0 0.0 0.00 0.31 0.00 94 1013.0
20260905062051 70 0 0.0 0.0 0.00 0.31 0.00 94 1013.0
20260905061615 70 0 0.0 0.0 0.00 0.31 0.00 94 1013.1
20260905061050 70 0 0.0 0.0 0.00 0.31 0.00 94 1013.1
20260905060550 70 0 0.0 0.0 0.00 0.31 0.00 94 1013.0
20260905060104 70 0 0.0 0.0 0.00 0.31 0.00 94 1013.1
20260905055551 70 0 0.0 0.0 0.00 0.31 0.00 94 1013.1
20260905055051 70 0 0.0 0.0 0.00 0.31 0.00 94 1013.2
20260905054606 70 0 0.0 0.0 0.00 0.31 0.00 94 1013.4
20260905054050 71 0 0.0 0.0 0.00 0.31 0.00 94 1013.6
20260905053550 71 0 0.0 0.0 0.00 0.31 0.00 94 1013.5
20260905053105 71 0 0.0 0.0 0.00 0.31 0.00 94 1013.6
20260905052550 71 0 0.0 0.0 0.00 0.31 0.00 94 1013.7
20260905052051 71 0 0.0 0.0 0.00 0.31 0.00 94 1013.7
20260905051605 71 0 0.0 0.0 0.00 0.31 0.00 94 1013.8
20260905051051 71 0 0.0 0.0 0.00 0.31 0.00 94 1013.8
20260905050551 71 0 0.0 0.0 0.00 0.31 0.00 94 1014.0
20260905050104 71 0 0.0 0.0 0.00 0.31 0.00 94 1014.0
20260905045550 71 0 0.0 0.0 0.00 0.31 0.00 94 1014.1
20260905045119 71 0 0.0 0.0 0.00 0.31 0.00 94 1014.0
20260905044603 71 0 0.0 0.0 0.00 0.31 0.00 94 1014.0
20260905044053 71 0 0.0 0.0 0.00 0.31 0.00 94 1014.0
20260905043556 71 0 0.0 0.0 0.00 0.31 0.00 94 1014.0
20260905043102 71 0 0.0 0.0 0.00 0.31 0.00 94 1014.0
20260905042553 71 0 0.0 0.0 0.00 0.31 0.00 94 1014.1
20260905042055 71 0 0.0 0.0 0.00 0.31 0.00 94 1014.2
20260905041618 71 0 0.0 0.0 0.00 0.31 0.00 94 1014.2
20260905041051 71 0 0.0 0.0 0.00 0.31 0.00 94 1014.3
20260905040550 72 0 0.0 0.0 0.00 0.31 0.00 94 1014.2
20260905040108 72 0 0.0 0.0 0.00 0.31 0.00 94 1014.4
20260905035549 72 0 0.0 0.0 0.00 0.31 0.31 94 1014.4
20260905035051 72 0 0.0 0.0 0.00 0.31 0.31 94 1014.5
20260905034605 72 0 0.0 0.0 0.00 0.31 0.31 94 1014.4
20260905034051 72 0 0.0 0.0 0.01 0.31 0.31 94 1014.5
20260905033549 72 0 0.0 0.0 0.01 0.31 0.31 94 1014.5
20260905033118 72 0 0.0 0.0 0.01 0.31 0.31 94 1014.3
20260905032550 72 0 0.0 0.0 0.01 0.31 0.31 94 1014.4
20260905032052 72 0 0.0 0.0 0.01 0.31 0.31 94 1014.3
20260905031615 72 0 0.0 0.0 0.01 0.31 0.31 94 1014.2
20260905031050 73 0 0.0 0.0 0.01 0.31 0.31 94 1014.2
20260905030550 73 0 0.0 0.0 0.01 0.31 0.31 94 1014.3
20260905030109 73 0 0.0 0.0 0.01 0.31 0.31 94 1014.2
20260905025550 73 0 0.0 0.0 0.01 0.31 0.31 94 1014.3
20260905025050 73 0 0.0 0.0 0.01 0.31 0.31 94 1014.3
20260905024612 73 0 0.0 0.0 0.01 0.31 0.31 94 1014.3
20260905024050 73 0 0.0 0.0 0.00 0.30 0.30 94 1014.4
20260905023554 73 0 0.0 0.0 0.00 0.30 0.30 94 1014.6
20260905023106 73 0 0.0 0.0 0.00 0.30 0.30 94 1014.5
20260905022552 73 0 0.0 0.0 0.00 0.30 0.30 94 1014.6
20260905022050 73 0 0.0 0.0 0.00 0.30 0.30 94 1014.7
20260905021605 73 0 0.0 0.0 0.00 0.30 0.30 94 1014.6
20260905021052 73 0 0.0 0.0 0.00 0.30 0.30 94 1014.4
20260905020551 73 0 0.0 0.0 0.00 0.30 0.30 94 1014.5
20260905020112 73 0 0.0 0.0 0.00 0.30 0.30 94 1014.7
20260905015550 73 0 0.0 0.0 0.00 0.30 0.30 94 1014.7
20260905015052 73 0 0.0 0.0 0.00 0.30 0.30 94 1014.7
20260905014605 73 0 0.0 0.0 0.00 0.30 0.30 94 1014.7
20260905014049 73 0 0.0 0.0 0.00 0.30 0.30 94 1014.7
20260905013550 73 0 0.0 0.0 0.00 0.30 0.30 94 1014.7
20260905013111 73 0 0.0 0.0 0.00 0.30 0.30 94 1014.5
20260905012550 73 0 0.0 0.0 0.00 0.30 0.30 94 1014.3
20260905012050 73 0 0.0 0.0 0.00 0.30 0.30 94 1014.1
20260905011631 73 0 0.0 0.0 0.00 0.30 0.30 94 1014.1
20260905011052 73 0 0.0 0.0 0.00 0.30 0.30 94 1013.8
20260905010550 73 0 0.0 0.0 0.00 0.30 0.30 94 1013.6
20260905010106 73 0 0.0 0.0 0.00 0.30 0.30 94 1013.8
20260905005551 73 0 0.0 0.0 0.00 0.30 0.30 94 1014.0
20260905005053 73 0 0.0 0.0 0.00 0.30 0.30 94 1014.1
20260905004607 73 0 0.0 0.0 0.00 0.30 0.30 94 1013.9
20260905004050 73 0 0.0 0.0 0.00 0.30 0.30 94 1013.7
20260905003553 73 0 0.0 0.0 0.00 0.30 0.30 94 1013.7
20260905003102 73 0 0.0 0.0 0.00 0.30 0.30 94 1013.6
20260905002550 73 0 0.0 0.0 0.00 0.30 0.30 94 1013.7
20260905002050 73 0 0.0 0.0 0.00 0.30 0.30 94 1013.4
20260905001605 73 0 0.0 0.0 0.00 0.30 0.30 94 1013.3
20260905001050 73 0 0.0 0.0 0.00 0.30 0.30 94 1013.1
20260905000550 73 0 0.0 0.0 0.00 0.30 0.30 94 1012.6
20260905000107 74 0 0.0 0.0 0.00 0.30 0.30 94 1012.5
20260904235552 74 0 0.0 0.0 0.00 0.30 0.30 94 1012.7
20260904235059 74 0 0.0 0.0 0.00 0.30 0.30 94 1013.3
20260904234608 74 0 0.0 0.0 0.00 0.30 0.30 94 1013.0
20260904234050 74 0 0.0 0.0 0.00 0.30 0.30 94 1013.1
20260904233551 74 0 0.0 0.0 0.01 0.30 0.30 94 1013.7
20260904233104 74 0 0.0 0.0 0.01 0.30 0.30 94 1014.2
20260904232550 74 0 0.0 0.0 0.13 0.30 0.30 94 1014.5
20260904232049 74 0 0.0 0.0 0.14 0.30 0.30 94 1014.3
20260904231606 74 0 0.0 0.0 0.14 0.30 0.30 93 1014.2
20260904231055 73 0 0.0 0.0 0.15 0.30 0.30 93 1014.3